Content
SEND FEEDBACK

Daily
Averages
Monthly
Summary
Mexico

PUEBLA - JARDINES DE SAN MANUEL, PUEBLA


Home > North America > Mexico > Puebla
Elevation: 6962 feet     Latitude: 19 00N     Longitude: 098 11W

WEATHER
 
SELECT A DAY
Number of Records: 121,122;   Date Range: 1/1/95 - 8/31/14
 
SHARE

PRINT THIS DATA

[ ← Previous Day ]
WEATHER ALMANAC - MAY 4, 2013
[ Next Day → ]
[ °C ]   °F
Weather ElementAverageHighLow
Temperature64.5 °F77 °F (3:50 pm)48.2 °F (5:40 am)
Dewpoint42.4 °F51 °F (3:45 am)32 °F (8:40 pm)
Humidity47.2 %88 % (6:45 am)21 % (9:45 pm)
Barometer30.13 in30.33 in (9:40 am)29.62 in (6:50 pm)
Wind Speed10.5 mph26.5 mph (3:42 pm)
Wind Gust34.5 mph (5:40 pm)
Weather ElementAverage
Visibility4.5 mi
Wind DirectionSSW (194.2 °)

Weather ElementTotal
Precipitation---
Heating Degree Days2.4 (Base 65)
Growing Degree Days12.6 (Base 50)
Averaged from 26 records on May 4, 2013
WEATHER CONDITIONS BREAKOUT
WIND DIRECTION BREAKOUT
WEATHER BY HOUR - MAY 4, 2013
[ °C ]   °F
Local TimeTemperatureDewpointHumidityBarometerVisibilityWind DirectionWind SpeedGust SpeedPrecipitationEventsConditions
3:45 AM54.0 °F51.0 °F85 %29.83 in3.0 miENE (60°)2.2 mphClear
5:40 AM48.2 °F44.6 °F87 %30.28 in6.0 miNW (320°)4.6 mphScattered Clouds
6:41 AM48.2 °F44.6 °F87 %30.29 in6.0 miNW (310°)3.5 mphPartly Cloudy
6:45 AM52.0 °F49.0 °F88 %29.88 in3.0 miCalmClear
7:44 AM48.2 °F42.8 °F82 %30.30 in5.0 miNNW (340°)3.5 mphClear
8:40 AM53.6 °F46.4 °F77 %30.32 in5.0 miNorth (350°)3.5 mphClear
9:40 AM60.8 °F48.2 °F63 %30.33 in5.0 miEast (80°)2.3 mphClear
9:50 AM62.0 °F51.0 °F58 %29.95 in3.0 miCalmHaze
10:40 AM62.6 °F48.2 °F59 %30.33 in5.0 miSouth (180°)10.4 mphScattered Clouds
11:40 AM66.2 °F48.2 °F52 %30.30 in5.0 miSouth (190°)10.4 mphScattered Clouds
12:40 PM69.8 °F48.2 °F46 %30.27 in5.0 miSouth (170°)13.8 mphPartly Cloudy
12:50 PM73.0 °F50.0 °F33 %29.86 in3.0 miSSE (150°)2.2 mphHaze
1:40 PM69.8 °F46.4 °F43 %30.26 in5.0 miSouth (170°)15.0 mph26.5 mphPartly Cloudy
2:40 PM73.4 °F41.0 °F31 %30.21 in5.0 miSSW (200°)18.4 mph29.9 mphScattered Clouds
3:42 PM75.2 °F39.2 °F27 %30.18 in5.0 miSouth (180°)26.5 mphScattered Clouds
3:50 PM77.0 °F46.0 °F22 %29.73 in3.0 miSSE (150°)4.5 mphHaze
4:40 PM73.4 °F35.6 °F25 %30.17 in5.0 miSouth (190°)20.7 mph32.2 mphScattered Clouds
5:40 PM75.2 °F35.6 °F24 %30.16 in5.0 miSouth (180°)23.0 mph34.5 mphScattered Clouds
6:41 PM71.6 °F35.6 °F27 %30.17 in5.0 miSSW (210°)20.7 mph32.2 mphMostly Cloudy
6:50 PM73.0 °F42.0 °F22 %29.62 in3.0 miSSE (150°)4.5 mphHaze
7:40 PM69.8 °F33.8 °F27 %30.19 in5.0 miSSW (200°)17.3 mphScattered Clouds
8:40 PM68.0 °F32.0 °F26 %30.20 in5.0 miSouth (190°)21.9 mphClear
9:40 PM62.6 °F33.8 °F34 %30.23 in5.0 miSSE (160°)18.4 mphClear
9:45 PM68.0 °F37.0 °F21 %29.65 in3.0 miSSE (160°)2.2 mphScattered Clouds
10:40 PM62.6 °F32.0 °F32 %30.26 in5.0 miSouth (190°)12.7 mph25.3 mphClear
11:40 PM59.0 °F39.2 °F48 %30.29 in5.0 miSouth (180°)11.5 mphClear
Hourly data recorded from MMPB, located miles away from Puebla - Jardines de San Manuel, Puebla







STORIES FROM OUR PARTNERS